Regional Weather Roundup
Issued by NWS Upton, NY

Current Version | Previous Version | Graphics & Text | Print | Product List | Glossary Off
Versions: 1 2 3 4 5 6 7 8 9 10 11 12 13 14 15 16 17 18 19 20 21 22 23 24 25 26 27 28 29 30 31 32 33 34 35 36 37 38 39 40 41 42 43 44 45 46 47 48 49 50

362
ASUS41 KOKX 290009
RWROKX

REGIONAL WEATHER ROUNDUP
NATIONAL WEATHER SERVICE NEW YORK NY
800 PM EDT SUN MAY 28 2017

NOTE: "FAIR" INDICATES FEW OR NO CLOUDS BELOW 12,000 FEET WITH NO
SIGNIFICANT WEATHER AND/OR OBSTRUCTIONS TO VISIBILITY.

NYZ071-072-176-178-NJZ106-104-290100-
NEW YORK CITY METRO AREA

CITY           SKY/WX    TMP DP  RH WIND       PRES   REMARKS
Central Park   MOCLDY    64  50  60 CALM      29.97R
Wall St Helipt CLOUDY    63  52  67 E8        29.96S
Bronx Bot Gard   N/A     63  48  59 SE7       29.97R
LaGuardia APRT CLOUDY    65  49  56 SE10      29.94S
Kennedy INTL   CLOUDY    62  54  74 E13       29.95S
Breezy Point     N/A     59 N/A N/A E12         N/A
Newark/Liberty CLOUDY    63  50  62 SE9G16    29.94S
Teterboro      MOCLDY    65  49  56 SE6       29.93S
$$

NYZ177-179-078>081-290100-
LONG ISLAND NEW YORK

CITY           SKY/WX    TMP DP  RH WIND       PRES   REMARKS
Jones Beach      N/A     59 N/A N/A E9G15       N/A
Matinecock PT  NOT AVBL
Farmingdale    CLOUDY    60  51  72 SE10      29.95F
MacArthur/ISP  CLOUDY    59  51  75 SE10      29.96F
Shirley        CLOUDY    58  54  86 E8        29.98S
Mt Sinai Harb    N/A    N/A N/A N/A SE3         N/A
Westhampton    CLOUDY    57  52  83 E7        30.00S
East Hampton     N/A     55  52  88 SE9       29.99S
Montauk          N/A     56  53  90 S6        30.01
$$

NYZ052-065-067-290100-
HUDSON VALLEY

CITY           SKY/WX    TMP DP  RH WIND       PRES   REMARKS
White Plains   CLOUDY    61  48  62 SE9       29.95S
Larchmont Harb   N/A     61 N/A N/A E7          N/A
Croton O-T Hud   N/A     64 N/A N/A SE2         N/A
Newburgh       PTCLDY    64  57  77 S7        29.95R
Montgomery     CLOUDY    66  55  67 SE9       29.92R
Poughkeepsie   MOCLDY    65  53  65 S6        29.92R
Albany         CLOUDY    70  56  61 S10G21    29.88F
$$

NJZ001-105-106-008-010-013-015-019>022-104-290100-
NEW JERSEY

CITY           SKY/WX    TMP DP  RH WIND       PRES   REMARKS
Newark/Liberty CLOUDY    63  50  62 SE9G16    29.94S
Teterboro      MOCLDY    65  49  56 SE6       29.93S
Caldwell       CLOUDY    65  49  56 SE7       29.95R
Somerville     CLOUDY    64  55  72 VRB3      29.91R
Linden         CLOUDY    62  52  69 SE6       29.94R
Perth Amboy      N/A     61 N/A N/A E13         N/A
Sussex         CLOUDY    65  54  67 SE9       29.93R
Andover          N/A     63  51  65 VRB5      29.93R
Trenton        LGT RAIN  64  55  72 E12       29.90S
Millville      LGT RAIN  63  61  93 E10       29.86F
Atlantic City  LGT RAIN  62  50  65 E10       29.88F
Wrightstown    LGT RAIN  61  56  84 E8        29.89S
Toms River     LGT RAIN  61  56  83 E5        29.92S
Belmar         CLOUDY    60  53  77 E13       29.94S
$$

PAZ047>061-062-071-290100-
EASTERN PENNSYLVANIA

CITY           SKY/WX    TMP DP  RH WIND       PRES   REMARKS
Philadelphia   LGT RAIN  65  58  78 E12       29.89S
Allentown      CLOUDY    70  54  56 SE9       29.89R
Scranton       CLOUDY    67  58  72 CALM      29.88R
$$

CTZ002-004>006-009-010-012-RIZ004-006-007-MAZ004-011-015-290100-
SOUTHERN NEW ENGLAND
 IN CT

CITY           SKY/WX    TMP DP  RH WIND       PRES   REMARKS
Bradley INTL   CLOUDY    64  48  56 S12       29.96R
Hartford       CLOUDY    63  49  60 S6        29.97R
Danbury        CLOUDY    60  49  66 VRB6      29.98R
Wtrbury/Oxford CLOUDY    59  46  63 S9        29.99R
Bridgeport     CLOUDY    62  50  64 SE6       29.97R
Meriden        CLOUDY    61  48  62 SE6       29.98R
New Haven      CLOUDY    60  50  69 SE8       29.98R
Chester          N/A     57  50  77 SE5       29.99R
Groton         CLOUDY    56  51  84 SE7       29.99S
Wilimantic     CLOUDY    63  47  55 S5        29.98S

 IN RI

CITY           SKY/WX    TMP DP  RH WIND       PRES   REMARKS
Providence     CLOUDY    56  52  86 S12       30.01R
Block Island   MOCLDY    55  50  83 SE8       30.00F
Westerly       CLOUDY    57  51  80 SE6       30.00F
 IN MA

CITY           SKY/WX    TMP DP  RH WIND       PRES   REMARKS
Boston         CLOUDY    63  52  67 S9        29.98R
Worcester      CLOUDY    60  49  66 S7        29.98R
Westfield      NOT AVBL
Provincetown   PTCLDY    54  49  83 S9        30.02R
Nantucket      CLOUDY    50  46  86 SE9       30.03R
$$

ANZ330-335-338-340-345-350-353-355-290100-
COASTAL MARINE OBSERVATIONS


STATION/POSITION TIME  SKY/WX   TEMP    WIND        PRES    VSBY  WAVE
                                AIR SEA DIR/SP/G                  HT/PER
                 (UTC)          (F)     (DEG/KT/KT) (MB)    (MI)  (FT/S)
NY HARB ENTRANCE 2250            60 59   90/ 12/ 14 1013.7          2/ 8
20 S FIRE ISLAND 2350            58 58  100/ 14/ 16 1013.3          3/ 7
GREAT SOUTH BAY  2330            60 65  110/ 12/ 16   N/A
23 SSW MONTAUK P 2250            56 56              1016.0          2/ 8
15 E BARNEGAT LI 2330               60                N/A           3/ 8
HUDSON CANYON    2250            58 56  110/ 12/ 14 1013.5          3/ 4
KINGS POINT      2348            62 61  190/  7/ 10 1013.9
EXECUTION ROCKS  2345            63                   N/A
CENTRAL LI SOUND 2300            58     140/  6/ 10   N/A           1
EASTERN LI SOUND NOT AVBL
ROBBINS REEF     2348            62     130/ 13/ 18 1014.4
$$


>>>>>>>>>>>>>>>>>>>>>>>>>>>> KEY <<<<<<<<<<<<<<<<<<<<<<<<<<<
>                                                          <
>     SKY/WX - Sky Condition/Present Weather               <
>     TMP    - Temperature in Fahrenheit                   <
>     DP     - Dew Point in Fahrenheit                     <
>     RH     - Relative Humidity in Percent                <
>     WIND   - Direction (from) and Speed in MPH           <
>     PRES   - Mean Sea Level Pressure (inches of Hg)      <
>     WCI    - Wind Chill Index                            <
>     VSB    - VISIBILITY IN MILES                         <
>     HX     - HEAT INDEX                                  <
>     TC     - TEMPERATURE IN CELSIUS                      <
>     VRB    - VARIABLE WIND DIRECTION                     <
>                                                          <
>>>>>>>>>>>>>>>>>>>>>>>>>>>> KEY <<<<<<<<<<<<<<<<<<<<<<<<<<<




USA.gov is the U.S. government's official web portal to all federal, state and local government web resources and services.